Location: Bats
(43.6587°N, 0.4584°W)
Time: 19:41:51
(UTC+00:00)

Cosmos 1959 Rocket - Pass Details

Date: 12 January 2026
Orbit: 947 x 996 km, 83.0° (Epoch: 13 February)

Event Time Altitude Azimuth Distance (km) Brightness Sun altitude
Rises 18:15:49 0° 352° (N) 3,627 7.4 -15.7°
Reaches altitude 10° 18:18:18 10° 352° (N) 2,679 6.7 -16.1°
Maximum altitude 18:24:26 88° 82° (E) 958 4.4 -17.2°
Drops below altitude 10° 18:30:35 10° 173° (S) 2,680 6.9 -18.2°
Sets 18:33:04 0° 174° (S) 3,629 7.6 -18.7°
